Retour au catalogue

EUTE 16C

SESAT 1

ActifCommunicationsGEO
NORAD 26243·PAYLOAD·🇪🇺 EU

Lancé Apr 17, 2000 depuis Baikonur Cosmodrome

Loading…

TLE

FraisSource: Space-Track

Époque: Sep 14, 2026, 13:21 UTC

1 26243U 00019A   26257.55638766  .00000002  00000-0  00000+0 0  9996
2 26243  11.0680  45.2202 0005559 158.6101 203.8200  0.98954699 96230

Suivez EUTE 16C en temps réel avec AllMySat

Download on the App Store